| time (UTC) | temp F | wind direction | speed knots | gust knots | rain 1hr in | rain 24hr in | rain mn in | humidity % | barometer mb |
| 20260504224052 | 45 | 92 | 17.4 | 43.4 | 0.00 | 0.00 | 0.00 | 70 | 796.9 |
| 20260504223037 | 46 | 92 | 17.4 | 43.4 | 0.00 | 0.00 | 0.00 | 70 | 796.8 |
| 20260504222021 | 45 | 92 | 17.4 | 43.4 | 0.00 | 0.00 | 0.00 | 70 | 796.8 |
| 20260504221005 | 45 | 92 | 17.4 | 43.4 | 0.00 | 0.00 | 0.00 | 70 | 796.7 |
| 20260504215950 | 46 | 92 | 17.4 | 43.4 | 0.00 | 0.00 | 0.00 | 70 | 796.7 |
| 20260504214934 | 46 | 92 | 17.4 | 43.4 | 0.00 | 0.00 | 0.00 | 70 | 796.6 |
| 20260504213921 | 45 | 92 | 17.4 | 43.4 | 0.00 | 0.00 | 0.00 | 70 | 796.6 |
| 20260504212900 | 45 | 92 | 17.4 | 43.4 | 0.00 | 0.00 | 0.00 | 70 | 796.6 |
| 20260504211845 | 45 | 92 | 17.4 | 43.4 | 0.00 | 0.00 | 0.00 | 71 | 796.6 |
| 20260504210830 | 45 | 92 | 17.4 | 43.4 | 0.00 | 0.00 | 0.00 | 71 | 796.7 |
| 20260504205815 | 46 | 92 | 17.4 | 43.4 | 0.00 | 0.00 | 0.00 | 71 | 796.8 |
| 20260504204800 | 47 | 92 | 17.4 | 43.4 | 0.00 | 0.00 | 0.00 | 71 | 796.7 |
| 20260504203745 | 46 | 92 | 17.4 | 43.4 | 0.00 | 0.00 | 0.00 | 71 | 796.6 |
| 20260504202738 | 47 | 92 | 17.4 | 43.4 | 0.00 | 0.00 | 0.00 | 71 | 796.7 |
| 20260504201729 | 47 | 92 | 17.4 | 43.4 | 0.00 | 0.00 | 0.00 | 71 | 796.7 |
| 20260504200718 | 46 | 92 | 17.4 | 43.4 | 0.00 | 0.00 | 0.00 | 71 | 796.8 |
| 20260504193655 | 46 | 92 | 17.4 | 43.4 | 0.00 | 0.00 | 0.00 | 70 | 796.9 |
| 20260504192648 | 47 | 92 | 17.4 | 43.4 | 0.00 | 0.00 | 0.00 | 71 | 796.9 |
| 20260504191640 | 48 | 92 | 17.4 | 43.4 | 0.00 | 0.00 | 0.00 | 71 | 797.0 |
| 20260504190632 | 48 | 92 | 17.4 | 43.4 | 0.00 | 0.00 | 0.00 | 71 | 797.0 |
| 20260504185622 | 47 | 92 | 17.4 | 43.4 | 0.00 | 0.00 | 0.00 | 70 | 797.0 |
| 20260504184613 | 46 | 92 | 17.4 | 43.4 | 0.00 | 0.00 | 0.00 | 70 | 797.1 |
| 20260504182557 | 46 | 92 | 17.4 | 43.4 | 0.00 | 0.00 | 0.00 | 70 | 797.2 |
| 20260504181547 | 46 | 92 | 17.4 | 43.4 | 0.00 | 0.00 | 0.00 | 70 | 797.3 |
| 20260504175531 | 47 | 92 | 17.4 | 43.4 | 0.00 | 0.00 | 0.00 | 70 | 797.5 |
| 20260504174521 | 48 | 92 | 17.4 | 43.4 | 0.00 | 0.00 | 0.00 | 70 | 797.4 |
| 20260504173514 | 48 | 92 | 17.4 | 43.4 | 0.00 | 0.00 | 0.00 | 70 | 797.7 |
| 20260504172506 | 48 | 92 | 17.4 | 43.4 | 0.00 | 0.00 | 0.00 | 70 | 797.9 |
| 20260504171456 | 48 | 92 | 17.4 | 43.4 | 0.00 | 0.00 | 0.00 | 69 | 798.1 |
| 20260504170448 | 49 | 92 | 17.4 | 43.4 | 0.00 | 0.00 | 0.00 | 69 | 798.2 |
| 20260504160352 | 50 | 92 | 17.4 | 43.4 | 0.00 | 0.00 | 0.00 | 68 | 798.6 |
| 20260504150303 | 51 | 92 | 17.4 | 43.4 | 0.00 | 0.00 | 0.00 | 67 | 798.9 |
| 20260504141221 | 51 | 92 | 17.4 | 43.4 | 0.00 | 0.00 | 0.00 | 67 | 799.0 |
| 20260504140213 | 51 | 92 | 17.4 | 43.4 | 0.00 | 0.00 | 0.00 | 68 | 799.0 |
| 20260504130112 | 50 | 92 | 17.4 | 43.4 | 0.00 | 0.00 | 0.00 | 69 | 798.7 |
| 20260504081352 | 52 | 92 | 17.4 | 43.4 | 0.00 | 0.00 | 0.00 | 69 | 796.7 |
| 20260504080335 | 52 | 92 | 17.4 | 43.4 | 0.00 | 0.00 | 0.00 | 69 | 796.6 |
| 20260504070200 | 54 | 92 | 17.4 | 43.4 | 0.00 | 0.00 | 0.00 | 69 | 796.8 |
| 20260504060104 | 57 | 92 | 17.4 | 43.4 | 0.00 | 0.00 | 0.00 | 68 | 797.3 |
| 20260504043954 | 58 | 92 | 17.4 | 43.4 | 0.00 | 0.00 | 0.00 | 69 | 798.3 |
| 20260504042946 | 57 | 92 | 17.4 | 43.4 | 0.00 | 0.00 | 0.00 | 69 | 798.3 |
| 20260504041937 | 56 | 92 | 17.4 | 43.4 | 0.00 | 0.00 | 0.00 | 69 | 798.5 |
| 20260504040931 | 58 | 92 | 17.4 | 43.4 | 0.00 | 0.00 | 0.00 | 68 | 798.6 |
| 20260504035922 | 59 | 92 | 17.4 | 43.4 | 0.00 | 0.00 | 0.00 | 69 | 798.6 |
| 20260504034914 | 61 | 92 | 17.4 | 43.4 | 0.00 | 0.00 | 0.00 | 69 | 798.6 |
| 20260504033906 | 58 | 92 | 17.4 | 43.4 | 0.00 | 0.00 | 0.00 | 69 | 798.8 |
| 20260504032857 | 56 | 92 | 17.4 | 43.4 | 0.00 | 0.00 | 0.00 | 69 | 798.9 |
| 20260504031849 | 56 | 92 | 17.4 | 43.4 | 0.00 | 0.00 | 0.00 | 68 | 798.9 |
| 20260504025831 | 60 | 92 | 17.4 | 43.4 | 0.00 | 0.00 | 0.00 | 68 | 799.0 |
| 20260504023811 | 58 | 92 | 17.4 | 43.4 | 0.00 | 0.00 | 0.00 | 69 | 799.1 |
| 20260504021752 | 59 | 92 | 17.4 | 43.4 | 0.00 | 0.00 | 0.00 | 69 | 799.0 |
| 20260504020744 | 58 | 92 | 17.4 | 43.4 | 0.00 | 0.00 | 0.00 | 69 | 799.0 |
| 20260504015734 | 59 | 92 | 17.4 | 43.4 | 0.00 | 0.00 | 0.00 | 70 | 798.9 |
| 20260504014726 | 60 | 92 | 17.4 | 43.4 | 0.00 | 0.00 | 0.00 | 70 | 798.9 |
| 20260504013716 | 62 | 92 | 17.4 | 43.4 | 0.00 | 0.00 | 0.00 | 70 | 798.9 |
| 20260504011658 | 57 | 92 | 17.4 | 43.4 | 0.00 | 0.00 | 0.00 | 71 | 798.7 |
| 20260504010648 | 59 | 92 | 17.4 | 43.4 | 0.00 | 0.00 | 0.00 | 70 | 798.6 |
| 20260504005638 | 59 | 92 | 17.4 | 43.4 | 0.00 | 0.00 | 0.00 | 71 | 798.5 |
| 20260504004631 | 58 | 92 | 17.4 | 43.4 | 0.00 | 0.00 | 0.00 | 72 | 798.6 |
| 20260504003624 | 58 | 92 | 17.4 | 43.4 | 0.00 | 0.00 | 0.00 | 71 | 798.5 |
| 20260504002616 | 60 | 92 | 17.4 | 43.4 | 0.00 | 0.00 | 0.00 | 71 | 798.4 |
| 20260504000601 | 59 | 92 | 17.4 | 43.4 | 0.00 | 0.00 | 0.00 | 71 | 798.2 |
| 20260503235546 | 54 | 92 | 17.4 | 43.4 | 0.00 | 0.00 | 0.00 | 71 | 798.1 |
| 20260503233513 | 50 | 92 | 17.4 | 43.4 | 0.00 | 0.00 | 0.00 | 72 | 797.9 |
| 20260503232456 | 49 | 92 | 17.4 | 43.4 | 0.00 | 0.00 | 0.00 | 72 | 797.9 |
| 20260503231440 | 48 | 92 | 17.4 | 43.4 | 0.00 | 0.00 | 0.00 | 72 | 797.8 |
| 20260503230425 | 48 | 92 | 17.4 | 43.4 | 0.00 | 0.00 | 0.00 | 72 | 797.7 |
| 20260503225410 | 48 | 92 | 17.4 | 43.4 | 0.00 | 0.00 | 0.00 | 72 | 797.7 |